Weather in Staroye

Russia / Oryol Oblast     53°17′48″N   35°16′19″E
temp.,
°C
wind,
m/s
gust,
m/s
humid.,
%
clouds,
%
prec.,
mm/h
press.,
hPa
HPBL,
m
11 april, sun
sun1100:00+3ssw34670 0.0 102760
03:00+2sw23720 0.0 102836
06:00+1sw22750 0.0 102911
09:00+7ssw23550 0.0 1030250
12:00+12s21420 0.0 1030983
15:00+14se11380 0.0 10291267
18:00+13ese23480 0.0 1029147
21:00+8ene33622 0.0 103039
12 april, mon
mon1200:00+6ene356998 0.0 103173
03:00+4ene3675100 0.0 1031100
06:00+4ene41275100 0.0 1030273
09:00+7ene41158100 0.0 1028442
12:00+10e5768100 0.0 1027665
15:00+12e356969 0.0 1026583
18:00+14e3772100 0.0 1024365
21:00+10ene3890100 0.0 1024159
13 april, tue
tue1300:00+9e3891100 0.0 1023148
03:00+9sse2289100 0.0 102221
06:00+9se2383100 0.0 102238
09:00+13se487083 0.0 1022290
12:00+18sse585054 0.0 10211058
15:00+19sse694692 0.0 10201947
18:00+17sse495786 0.0 1020440
21:00+13se31070100 0.1 1020232
14 april, wed
wed1400:00+11sse387478 0.0 1020151
03:00+10se368248 0.0 102098
06:00+9se2586100 0.0 102081
09:00+13se486993 0.0 1020323
12:00+17ese5753100 0.0 10181017
15:00+18se584299 0.0 10171784
18:00+17sse3655100 0.0 1016232
21:00+13wsw1178100 0.3 101723
15 april, thu
thu1500:00+12ese1179100 0.1 101710
03:00+10ese2281100 0.1 101714
06:00+9e2282100 0.0 101620
09:00+12ene3464100 0.0 1015239
12:00+15nne2352100 0.0 1014499
15:00+17ne4545100 0.0 1013961
18:00+15nne4956100 0.0 1011466
21:00+12ene51266100 0.2 1011491